This is the latest recevied weather packets stored in our database for station/object SP4MAZ-13. If no packets are shown the sender has not sent any weather packets the latest 10 day(s).
| Time | Temp. | Humidity | Pressure | Rain* | Wind** | Luminosity | Snow |
|---|---|---|---|---|---|---|---|
| 1777364050 | 7.22° C | 47% | 2147.4 hPa | - | - | - | - |
| 1777363746 | 6.67° C | 47% | 2147.4 hPa | - | - | - | - |
| 1777363442 | 6.67° C | 48% | 2147.4 hPa | - | - | - | - |
| 1777363139 | 6.67° C | 50% | 2147.4 hPa | - | - | - | - |
| 1777362533 | 6.67° C | 49% | 2147.4 hPa | - | - | - | - |
| 1777361926 | 6.67° C | 48% | 2147.4 hPa | - | - | - | - |
| 1777361622 | 7.22° C | 50% | 2147.4 hPa | - | - | - | - |
| 1777361318 | 6.67° C | 54% | 2147.4 hPa | - | - | - | - |
| 1777361015 | 6.67° C | 53% | 2147.4 hPa | - | - | - | - |
| 1777360712 | 6.11° C | 51% | 2147.4 hPa | - | - | - | - |
| 1777360408 | 6.11° C | 53% | 2147.4 hPa | - | - | - | - |
| 1777360105 | 6.67° C | 56% | 2147.4 hPa | - | - | - | - |
| 1777359499 | 5.56° C | 56% | 2147.4 hPa | - | - | - | - |
| 1777358892 | 5.56° C | 54% | 2147.4 hPa | - | - | - | - |
| 1777358285 | 6.11° C | 60% | 2147.4 hPa | - | - | - | - |
| 1777357981 | 5.56° C | 59% | 2147.4 hPa | - | - | - | - |
| 1777357678 | 5.56° C | 63% | 2147.4 hPa | - | - | - | - |
| 1777357375 | 5° C | 59% | 2147.4 hPa | - | - | - | - |
| 1777357071 | 5° C | 63% | 2147.4 hPa | - | - | - | - |
| 1777356767 | 5° C | 62% | 2147.4 hPa | - | - | - | - |
| 1777356464 | 5.56° C | 63% | 2147.4 hPa | - | - | - | - |
| 1777356160 | 5.56° C | 64% | 2147.4 hPa | - | - | - | - |
| 1777355857 | 5° C | 65% | 2147.4 hPa | - | - | - | - |
| 1777354947 | 5° C | 65% | 2147.4 hPa | - | - | - | - |
| 1777354643 | 4.44° C | 66% | 2147.4 hPa | - | - | - | - |
* Rain since midnight (hover to see other rain measurements)
** Current wind speed in m/s (hover to see current wind gust speed)